International Virtual Aviation Organisation

Russian Federation and Kazakhstan MCD

 

Карточка аэропорта UUWW

Внимание!
Информация на этой странице в стадии наполнения.
Если вы не увидели какой-то информации, или заметили неточность - пожалуйста сообщите нам!
Спасибо!
Команда RU-STAFF
Название аэропортаВнуково
Название аэропорта (англ.)Vnukovo
Превышение686 ft. (209.1 m.)
Координаты55°35.952', 37°16.386'
Высота перехода1200 m
Эшелон переходаBy ATC
Коды ответчика2101-2117
Зона ОрВДМосква РПИ (UUWV)
Данные METARUUWW 131030Z 14005MPS 9999 OVC015 M00/M03 Q1016 R19/190060 NOSIG
Проноз погоды (TAF)UUWW 130927Z 1309/1409 15003G08MPS 8000 OVC007 TX00/1309Z TNM02/1408Z TEMPO 1309/1320 3100 -FZRA OVC004 TEMPO 1320/1407 3100 -SN -FZDZ BR OVC003
NOTAMshow/hide NOTAM
AWOS   TABLE

Информация о ВПП

ВПП Длина ВПП (м.) Покрытие Курс ВПП Частота ILS
013060Бетон13111.7
193060Бетон193111.5
063500Бетон58108.9
243500Бетон238111.1

Диспетчерские позиции

Позывной Наименование органа УВД Частота
UUWW_TWRВнуково-Старт/Посадка118.300
UUWW_R_APPВнуково-Круг126.000
UUWW_GNDВнуково-Руление120.450
UUWW_DELВнуково-Деливери131.800



Спутниковое изображение